Location: Eastchurch
(51.4000°N, 0.8667°E)
Time: 23:24:20
(UTC+00:00)

SL-16 R/B - Pass Details

Date: 19 January 2026
Orbit: 841 x 844 km, 71.0° (Epoch: 9 February)

Event Time Altitude Azimuth Distance (km) Brightness Sun altitude
Rises 18:50:44 0° 330° (NNW) 3,415 5.7 -22.3°
Reaches altitude 10° 18:53:37 10° 344° (NNW) 2,477 4.8 -22.8°
Enters shadow 18:57:11 24° 21° (NNE) 1,687 3.5 -23.3°
